Time,TemperatureF,DewpointF,PressureIn,WindDirection,WindDirectionDegrees,WindSpeedMPH,WindSpeedGustMPH,Humidity,HourlyPrecipIn,Conditions,Clouds,dailyrainin,SoftwareType,DateUTC
2013-01-24 00:03:00,0.0,-14.0,-100.00,West,280,1.0,11.0,50,0.00,,,-99.99,,2013-01-24 05:03:00,
2013-01-24 00:12:00,-1.0,-14.0,-100.00,WSW,250,2.0,6.0,51,0.00,,,-99.99,,2013-01-24 05:12:00,
2013-01-24 00:22:00,-1.0,-15.0,-100.00,West,265,3.0,9.0,51,0.00,,,-99.99,,2013-01-24 05:22:00,
2013-01-24 00:33:00,-1.0,-14.0,-100.00,WSW,245,1.0,10.0,51,0.00,,,-99.99,,2013-01-24 05:33:00,
2013-01-24 00:42:00,-1.0,-15.0,-100.00,WNW,290,2.0,6.0,50,0.00,,,-99.99,,2013-01-24 05:42:00,
2013-01-24 00:52:00,-1.0,-15.0,-100.00,South,185,2.0,4.0,50,0.00,,,-99.99,,2013-01-24 05:52:00,
2013-01-24 01:03:00,-2.0,-14.0,-100.00,South,180,1.0,4.0,54,0.00,,,-99.99,,2013-01-24 06:03:00,
2013-01-24 01:12:00,-2.0,-15.0,-100.00,North,0,1.0,4.0,53,0.00,,,-99.99,,2013-01-24 06:12:00,
2013-01-24 01:22:00,-2.0,-15.0,-100.00,West,280,1.0,4.0,51,0.00,,,-99.99,,2013-01-24 06:22:00,
2013-01-24 01:32:00,-2.0,-15.0,-100.00,WSW,240,2.0,8.0,53,0.00,,,-99.99,,2013-01-24 06:32:00,
2013-01-24 01:42:00,-1.0,-15.0,-100.00,WNW,290,3.0,7.0,50,0.00,,,-99.99,,2013-01-24 06:42:00,
2013-01-24 01:52:00,-1.0,-15.0,-100.00,NW,310,1.0,8.0,49,0.00,,,-99.99,,2013-01-24 06:52:00,
2013-01-24 02:03:00,-1.0,-16.0,-100.00,WSW,250,4.0,11.0,49,0.00,,,-99.99,,2013-01-24 07:03:00,
2013-01-24 02:12:00,-1.0,-16.0,-100.00,WSW,240,3.0,11.0,48,0.00,,,-99.99,,2013-01-24 07:12:00,
2013-01-24 02:23:00,-1.0,-16.0,-100.00,West,270,3.0,14.0,49,0.00,,,-99.99,,2013-01-24 07:23:00,
2013-01-24 02:33:00,-1.0,-16.0,-100.00,West,270,4.0,12.0,49,0.00,,,-99.99,,2013-01-24 07:33:00,
2013-01-24 02:43:00,-1.0,-16.0,-100.00,WNW,290,3.0,9.0,49,0.00,,,-99.99,,2013-01-24 07:43:00,
2013-01-24 02:52:00,-1.0,-16.0,-100.00,WNW,285,4.0,11.0,48,0.00,,,-99.99,,2013-01-24 07:52:00,
2013-01-24 03:02:00,-1.0,-16.0,-100.00,WNW,295,5.0,12.0,49,0.00,,,-99.99,,2013-01-24 08:02:00,
2013-01-24 03:12:00,-1.0,-16.0,-100.00,West,280,2.0,9.0,49,0.00,,,-99.99,,2013-01-24 08:12:00,
2013-01-24 03:23:00,-2.0,-16.0,-100.00,WNW,290,1.0,6.0,50,0.00,,,-99.99,,2013-01-24 08:23:00,
2013-01-24 03:33:00,-2.0,-16.0,-100.00,NE,55,1.0,7.0,51,0.00,,,-99.99,,2013-01-24 08:33:00,
2013-01-24 03:43:00,-2.0,-15.0,-100.00,NW,310,2.0,6.0,52,0.00,,,-99.99,,2013-01-24 08:43:00,
2013-01-24 03:52:00,-2.0,-15.0,-100.00,WNW,285,2.0,5.0,52,0.00,,,-99.99,,2013-01-24 08:52:00,
2013-01-24 04:03:00,-3.0,-15.0,-100.00,WNW,300,4.0,10.0,53,0.00,,,-99.99,,2013-01-24 09:03:00,
2013-01-24 04:13:00,-3.0,-15.0,-100.00,West,260,2.0,9.0,54,0.00,,,-99.99,,2013-01-24 09:13:00,
2013-01-24 04:23:00,-3.0,-15.0,-100.00,NW,315,2.0,9.0,54,0.00,,,-99.99,,2013-01-24 09:23:00,
2013-01-24 04:33:00,-3.0,-15.0,-100.00,WNW,295,3.0,9.0,53,0.00,,,-99.99,,2013-01-24 09:33:00,
2013-01-24 04:43:00,-3.0,-15.0,-100.00,West,270,1.0,7.0,54,0.00,,,-99.99,,2013-01-24 09:43:00,
2013-01-24 04:52:00,-3.0,-15.0,-100.00,WNW,295,1.0,6.0,54,0.00,,,-99.99,,2013-01-24 09:52:00,
2013-01-24 05:03:00,-3.0,-15.0,-100.00,WSW,255,1.0,4.0,55,0.00,,,-99.99,,2013-01-24 10:03:00,
2013-01-24 05:12:00,-3.0,-15.0,-100.00,WSW,255,1.0,4.0,55,0.00,,,-99.99,,2013-01-24 10:12:00,
2013-01-24 05:23:00,-3.0,-15.0,-100.00,WNW,285,2.0,6.0,55,0.00,,,-99.99,,2013-01-24 10:23:00,
2013-01-24 05:33:00,-3.0,-16.0,-100.00,West,275,1.0,4.0,54,0.00,,,-99.99,,2013-01-24 10:33:00,
2013-01-24 05:43:00,-3.0,-15.0,-100.00,SW,235,1.0,4.0,55,0.00,,,-99.99,,2013-01-24 10:43:00,
2013-01-24 05:52:00,-3.0,-15.0,-100.00,South,185,1.0,4.0,57,0.00,,,-99.99,,2013-01-24 10:52:00,
2013-01-24 06:03:00,-4.0,-15.0,-100.00,South,180,1.0,4.0,56,0.00,,,-99.99,,2013-01-24 11:03:00,
2013-01-24 06:12:00,-3.0,-16.0,-100.00,ENE,70,0.0,3.0,53,0.00,,,-99.99,,2013-01-24 11:12:00,
2013-01-24 06:23:00,-4.0,-16.0,-100.00,NNW,335,1.0,3.0,56,0.00,,,-99.99,,2013-01-24 11:23:00,
2013-01-24 06:33:00,-4.0,-15.0,-100.00,ENE,65,1.0,1.0,58,0.00,,,-99.99,,2013-01-24 11:33:00,
2013-01-24 06:43:00,-4.0,-15.0,-100.00,South,180,1.0,4.0,57,0.00,,,-99.99,,2013-01-24 11:43:00,
2013-01-24 06:53:00,-4.0,-15.0,-100.00,WNW,285,3.0,6.0,57,0.00,,,-99.99,,2013-01-24 11:53:00,
2013-01-24 07:03:00,-4.0,-15.0,-100.00,SW,235,1.0,4.0,57,0.00,,,-99.99,,2013-01-24 12:03:00,
2013-01-24 07:12:00,-4.0,-15.0,-100.00,SE,145,1.0,2.0,58,0.00,,,-99.99,,2013-01-24 12:12:00,
2013-01-24 07:23:00,-4.0,-15.0,-100.00,WNW,300,1.0,2.0,59,0.00,,,-99.99,,2013-01-24 12:23:00,
2013-01-24 07:33:00,-5.0,-15.0,-100.00,North,0,0.0,2.0,60,0.00,,,-99.99,,2013-01-24 12:33:00,
2013-01-24 07:43:00,-5.0,-15.0,-100.00,ESE,105,1.0,1.0,60,0.00,,,-99.99,,2013-01-24 12:43:00,
2013-01-24 07:53:00,-4.0,-15.0,-100.00,WNW,300,3.0,7.0,59,0.00,,,-99.99,,2013-01-24 12:53:00,
2013-01-24 08:03:00,-4.0,-15.0,-100.00,WNW,295,2.0,6.0,56,0.00,,,-99.99,,2013-01-24 13:03:00,
2013-01-24 08:13:00,-3.0,-15.0,-100.00,West,280,2.0,6.0,55,0.00,,,-99.99,,2013-01-24 13:13:00,
2013-01-24 08:23:00,-3.0,-15.0,-100.00,West,270,4.0,7.0,55,0.00,,,-99.99,,2013-01-24 13:23:00,
2013-01-24 08:33:00,-2.0,-16.0,-100.00,NW,305,4.0,11.0,50,0.00,,,-99.99,,2013-01-24 13:33:00,
2013-01-24 08:43:00,0.0,-16.0,-100.00,WSW,250,2.0,11.0,45,0.00,,,-99.99,,2013-01-24 13:43:00,
2013-01-24 08:53:00,1.0,-17.0,-100.00,NW,305,6.0,11.0,43,0.00,,,-99.99,,2013-01-24 13:53:00,
2013-01-24 09:03:00,2.0,-16.0,-100.00,WNW,300,4.0,11.0,41,0.00,,,-99.99,,2013-01-24 14:03:00,
2013-01-24 09:12:00,2.0,-17.0,-100.00,West,265,4.0,12.0,39,0.00,,,-99.99,,2013-01-24 14:12:00,
2013-01-24 09:23:00,3.0,-16.0,-100.00,East,80,1.0,14.0,39,0.00,,,-99.99,,2013-01-24 14:23:00,
2013-01-24 09:33:00,3.0,-16.0,-100.00,SW,225,5.0,11.0,39,0.00,,,-99.99,,2013-01-24 14:33:00,
2013-01-24 09:43:00,3.0,-16.0,-100.00,WSW,245,2.0,16.0,40,0.00,,,-99.99,,2013-01-24 14:43:00,
2013-01-24 09:53:00,3.0,-16.0,-100.00,WSW,240,7.0,16.0,39,0.00,,,-99.99,,2013-01-24 14:53:00,
2013-01-24 10:03:00,4.0,-16.0,-100.00,West,275,6.0,14.0,39,0.00,,,-99.99,,2013-01-24 15:03:00,
2013-01-24 10:12:00,4.0,-16.0,-100.00,WSW,250,6.0,15.0,39,0.00,,,-99.99,,2013-01-24 15:12:00,
2013-01-24 10:23:00,4.0,-15.0,-100.00,WSW,250,7.0,16.0,39,0.00,,,-99.99,,2013-01-24 15:23:00,
2013-01-24 10:33:00,4.0,-15.0,-100.00,West,265,5.0,15.0,39,0.00,,,-99.99,,2013-01-24 15:33:00,
2013-01-24 10:43:00,5.0,-15.0,-100.00,West,265,4.0,12.0,39,0.00,,,-99.99,,2013-01-24 15:43:00,
2013-01-24 10:53:00,5.0,-14.0,-100.00,West,270,3.0,16.0,39,0.00,,,-99.99,,2013-01-24 15:53:00,
2013-01-24 11:03:00,6.0,-14.0,-100.00,WNW,285,5.0,12.0,38,0.00,,,-99.99,,2013-01-24 16:03:00,
2013-01-24 11:12:00,6.0,-15.0,-100.00,West,270,4.0,13.0,37,0.00,,,-99.99,,2013-01-24 16:12:00,
2013-01-24 11:23:00,6.0,-15.0,-100.00,SSW,210,5.0,14.0,36,0.00,,,-99.99,,2013-01-24 16:23:00,
2013-01-24 11:33:00,7.0,-14.0,-100.00,WSW,255,6.0,16.0,36,0.00,,,-99.99,,2013-01-24 16:33:00,
2013-01-24 11:42:00,7.0,-14.0,-100.00,WSW,255,6.0,16.0,36,0.00,,,-99.99,,2013-01-24 16:42:00,
2013-01-24 12:02:00,9.0,-13.0,-100.00,West,265,4.0,14.0,35,0.00,,,-99.99,,2013-01-24 17:02:00,
2013-01-24 12:12:00,9.0,-13.0,-100.00,WSW,255,8.0,15.0,34,0.00,,,-99.99,,2013-01-24 17:12:00,
2013-01-24 12:22:00,9.0,-14.0,-100.00,WSW,250,7.0,17.0,34,0.00,,,-99.99,,2013-01-24 17:22:00,
2013-01-24 12:32:00,10.0,-13.0,-100.00,WSW,250,7.0,17.0,33,0.00,,,-99.99,,2013-01-24 17:32:00,
2013-01-24 12:42:00,11.0,-12.0,-100.00,West,270,6.0,22.0,33,0.00,,,-99.99,,2013-01-24 17:42:00,
2013-01-24 12:52:00,12.0,-12.0,-100.00,WNW,290,9.0,16.0,31,0.00,,,-99.99,,2013-01-24 17:52:00,
2013-01-24 13:03:00,12.0,-11.0,-100.00,WNW,290,6.0,16.0,33,0.00,,,-99.99,,2013-01-24 18:03:00,
2013-01-24 13:12:00,13.0,-11.0,-100.00,West,265,4.0,17.0,31,0.00,,,-99.99,,2013-01-24 18:12:00,
2013-01-24 13:22:00,13.0,-12.0,-100.00,SW,215,4.0,15.0,32,0.00,,,-99.99,,2013-01-24 18:22:00,
2013-01-24 13:33:00,13.0,-12.0,-100.00,SW,215,6.0,17.0,31,0.00,,,-99.99,,2013-01-24 18:33:00,
2013-01-24 13:42:00,15.0,-12.0,-100.00,SSW,205,6.0,14.0,29,0.00,,,-99.99,,2013-01-24 18:42:00,
2013-01-24 13:52:00,15.0,-11.0,-100.00,SSW,200,2.0,14.0,29,0.00,,,-99.99,,2013-01-24 18:52:00,
2013-01-24 14:02:00,15.0,-12.0,-100.00,WSW,255,6.0,15.0,28,0.00,,,-99.99,,2013-01-24 19:02:00,
2013-01-24 14:12:00,15.0,-12.0,-100.00,WSW,240,6.0,20.0,28,0.00,,,-99.99,,2013-01-24 19:12:00,
2013-01-24 14:22:00,15.0,-12.0,-100.00,NW,305,5.0,23.0,28,0.00,,,-99.99,,2013-01-24 19:22:00,
2013-01-24 14:33:00,14.0,-13.0,-100.00,West,280,10.0,22.0,27,0.00,,,-99.99,,2013-01-24 19:33:00,
2013-01-24 14:42:00,15.0,-11.0,-100.00,SW,235,4.0,18.0,29,0.00,,,-99.99,,2013-01-24 19:42:00,
2013-01-24 14:52:00,15.0,-12.0,-100.00,West,265,6.0,16.0,28,0.00,,,-99.99,,2013-01-24 19:52:00,
2013-01-24 15:02:00,15.0,-11.0,-100.00,SW,220,4.0,11.0,29,0.00,,,-99.99,,2013-01-24 20:02:00,
2013-01-24 15:11:00,15.0,-12.0,-100.00,SW,235,4.0,16.0,29,0.00,,,-99.99,,2013-01-24 20:11:00,
2013-01-24 15:22:00,15.0,-12.0,-100.00,WSW,240,6.0,17.0,28,0.00,,,-99.99,,2013-01-24 20:22:00,
2013-01-24 15:33:00,15.0,-12.0,-100.00,WNW,285,6.0,16.0,27,0.00,,,-99.99,,2013-01-24 20:33:00,
2013-01-24 15:42:00,15.0,-13.0,-100.00,West,270,7.0,17.0,27,0.00,,,-99.99,,2013-01-24 20:42:00,
2013-01-24 15:52:00,15.0,-12.0,-100.00,SW,230,6.0,15.0,27,0.00,,,-99.99,,2013-01-24 20:52:00,
2013-01-24 16:03:00,15.0,-13.0,-100.00,West,270,6.0,24.0,28,0.00,,,-99.99,,2013-01-24 21:03:00,
2013-01-24 16:12:00,14.0,-13.0,-100.00,SW,230,7.0,19.0,27,0.00,,,-99.99,,2013-01-24 21:12:00,
2013-01-24 16:22:00,14.0,-13.0,-100.00,West,275,5.0,15.0,28,0.00,,,-99.99,,2013-01-24 21:22:00,
2013-01-24 16:33:00,14.0,-13.0,-100.00,WSW,245,5.0,15.0,28,0.00,,,-99.99,,2013-01-24 21:33:00,
2013-01-24 16:43:00,14.0,-12.0,-100.00,WSW,250,4.0,13.0,29,0.00,,,-99.99,,2013-01-24 21:43:00,
2013-01-24 16:52:00,14.0,-11.0,-100.00,WSW,255,3.0,14.0,31,0.00,,,-99.99,,2013-01-24 21:52:00,
2013-01-24 17:03:00,13.0,-12.0,-100.00,WSW,240,4.0,21.0,29,0.00,,,-99.99,,2013-01-24 22:03:00,
2013-01-24 17:12:00,13.0,-13.0,-100.00,SW,235,6.0,15.0,29,0.00,,,-99.99,,2013-01-24 22:12:00,
2013-01-24 17:22:00,13.0,-12.0,-100.00,South,190,3.0,9.0,31,0.00,,,-99.99,,2013-01-24 22:22:00,
2013-01-24 17:33:00,13.0,-12.0,-100.00,SSE,160,2.0,12.0,31,0.00,,,-99.99,,2013-01-24 22:33:00,
2013-01-24 17:42:00,13.0,-12.0,-100.00,South,175,3.0,14.0,31,0.00,,,-99.99,,2013-01-24 22:42:00,
2013-01-24 17:52:00,12.0,-12.0,-100.00,WSW,245,4.0,11.0,32,0.00,,,-99.99,,2013-01-24 22:52:00,
2013-01-24 18:03:00,12.0,-12.0,-100.00,West,265,6.0,16.0,32,0.00,,,-99.99,,2013-01-24 23:03:00,
2013-01-24 18:12:00,13.0,-12.0,-100.00,WNW,290,4.0,12.0,32,0.00,,,-99.99,,2013-01-24 23:12:00,
2013-01-24 18:22:00,12.0,-12.0,-100.00,WNW,290,5.0,14.0,32,0.00,,,-99.99,,2013-01-24 23:22:00,
2013-01-24 18:32:00,12.0,-11.0,-100.00,West,270,5.0,12.0,33,0.00,,,-99.99,,2013-01-24 23:32:00,
2013-01-24 18:42:00,12.0,-11.0,-100.00,WNW,300,3.0,17.0,33,0.00,,,-99.99,,2013-01-24 23:42:00,
2013-01-24 18:52:00,12.0,-11.0,-100.00,West,270,5.0,15.0,33,0.00,,,-99.99,,2013-01-24 23:52:00,
2013-01-24 19:02:00,12.0,-11.0,-100.00,West,275,7.0,16.0,33,0.00,,,-99.99,,2013-01-25 00:02:00,
2013-01-24 19:12:00,12.0,-11.0,-100.00,SW,225,4.0,19.0,33,0.00,,,-99.99,,2013-01-25 00:12:00,
2013-01-24 19:22:00,12.0,-11.0,-100.00,West,280,6.0,19.0,34,0.00,,,-99.99,,2013-01-25 00:22:00,
2013-01-24 19:32:00,11.0,-11.0,-100.00,WSW,240,5.0,17.0,35,0.00,,,-99.99,,2013-01-25 00:32:00,
2013-01-24 19:42:00,11.0,-10.0,-100.00,West,280,7.0,21.0,36,0.00,,,-99.99,,2013-01-25 00:42:00,
2013-01-24 19:52:00,11.0,-10.0,-100.00,West,275,7.0,17.0,37,0.00,,,-99.99,,2013-01-25 00:52:00,
2013-01-24 20:02:00,11.0,-10.0,-100.00,West,265,6.0,17.0,37,0.00,,,-99.99,,2013-01-25 01:02:00,
2013-01-24 20:12:00,10.0,-10.0,-100.00,WNW,285,6.0,22.0,38,0.00,,,-99.99,,2013-01-25 01:12:00,
2013-01-24 20:22:00,10.0,-10.0,-100.00,West,280,7.0,15.0,38,0.00,,,-99.99,,2013-01-25 01:22:00,
2013-01-24 20:32:00,10.0,-10.0,-100.00,West,270,6.0,18.0,39,0.00,,,-99.99,,2013-01-25 01:32:00,
2013-01-24 20:42:00,9.0,-10.0,-100.00,West,275,4.0,16.0,40,0.00,,,-99.99,,2013-01-25 01:42:00,
2013-01-24 20:52:00,9.0,-10.0,-100.00,WNW,285,6.0,17.0,39,0.00,,,-99.99,,2013-01-25 01:52:00,
2013-01-24 21:02:00,9.0,-10.0,-100.00,West,280,9.0,20.0,38,0.00,,,-99.99,,2013-01-25 02:02:00,
2013-01-24 21:11:00,9.0,-10.0,-100.00,NW,320,11.0,24.0,39,0.00,,,-99.99,,2013-01-25 02:11:00,
2013-01-24 21:22:00,9.0,-10.0,-100.00,West,270,6.0,16.0,40,0.00,,,-99.99,,2013-01-25 02:22:00,
2013-01-24 21:32:00,9.0,-10.0,-100.00,WNW,285,4.0,16.0,40,0.00,,,-99.99,,2013-01-25 02:32:00,
2013-01-24 21:42:00,9.0,-10.0,-100.00,WNW,295,8.0,27.0,40,0.00,,,-99.99,,2013-01-25 02:42:00,
2013-01-24 21:52:00,9.0,-10.0,-100.00,WSW,250,5.0,19.0,41,0.00,,,-99.99,,2013-01-25 02:52:00,
2013-01-24 22:02:00,9.0,-10.0,-100.00,West,275,4.0,18.0,41,0.00,,,-99.99,,2013-01-25 03:02:00,
2013-01-24 22:12:00,9.0,-9.0,-100.00,West,260,2.0,9.0,42,0.00,,,-99.99,,2013-01-25 03:12:00,
2013-01-24 22:22:00,9.0,-9.0,-100.00,West,275,4.0,16.0,43,0.00,,,-99.99,,2013-01-25 03:22:00,
2013-01-24 22:33:00,8.0,-9.0,-100.00,WNW,285,9.0,16.0,44,0.00,,,-99.99,,2013-01-25 03:33:00,
2013-01-24 22:42:00,8.0,-8.0,-100.00,WNW,285,4.0,14.0,45,0.00,,,-99.99,,2013-01-25 03:42:00,
2013-01-24 22:52:00,8.0,-8.0,-100.00,WSW,255,6.0,11.0,47,0.00,,,-99.99,,2013-01-25 03:52:00,
2013-01-24 23:02:00,8.0,-7.0,-100.00,WNW,285,6.0,24.0,49,0.00,,,-99.99,,2013-01-25 04:02:00,
2013-01-24 23:12:00,8.0,-7.0,-100.00,WNW,300,7.0,16.0,50,0.00,,,-99.99,,2013-01-25 04:12:00,
2013-01-24 23:22:00,8.0,-7.0,-100.00,WSW,245,8.0,18.0,51,0.00,,,-99.99,,2013-01-25 04:22:00,
2013-01-24 23:32:00,8.0,-7.0,-100.00,North,10,3.0,17.0,50,0.00,,,-99.99,,2013-01-25 04:32:00,
2013-01-24 23:42:00,8.0,-7.0,-100.00,WSW,255,6.0,22.0,50,0.00,,,-99.99,,2013-01-25 04:42:00,
2013-01-24 23:51:00,8.0,-7.0,-100.00,West,270,8.0,21.0,49,0.00,,,-99.99,,2013-01-25 04:51:00,